STARLINK-1577, 46063

Orbit data source: Space-Track

STARLINK-1577, 46063 is a payload satellite owned by SpaceX/Seattle (US) in LEO that was launched on Fri, 07 Aug 2020 UTC via an FALCON 9 launch vehicle from the Air Force Eastern Test Range (AFETR). Payload-class satellites include a variety of spacecraft equipped with specific instruments for various scientific and technological missions. These include communications satellites like Starlink; space stations such as the ISS; scientific satellites like the Hubble; Earth observation satellites from companies like Planet Labs, Umbra, and HawkEye 360; GPS; miniature CubeSats for education and research; and military/defense satellites.

Loading next visibility...
Identifier
46063, 2020-055AN
Orbit
LEO
Country
Flag of USUS
Related business
Manufacturer
SpaceX/Seattle
Mission
Operational Commercial Communications
Bus & Motor
STARLINK, Unknown motor
Mass
260 kg wet, ~248 kg dry
Launch date (UTC)
2020-08-07 (5 years ago)
Launch vehicle
FALCON 9
Launch site
Air Force Eastern Test Range (AFETR)
Object type
Payload
Rocket body
Debris
Shape & HBR
Box + 1 Pan, 10.1 m
Radar Cross Section
13.562 m², Large (>1 m²)

Expand to show TLE details & history
Last TLE update: 15 hours ago

TLE from 15 hours ago
0 STARLINK-1577
1 46063U 20055AN  25293.54988602 -.00002212  00000-0 -12974-3 0  9999
2 46063  53.0549  25.7275 0001291  92.6029 267.5108 15.06375057287900
Epoch: 2025-10-20T13:11Z
TLE epoch observation values (Epoch: 2025-10-20T13:11:50.152Z)
Latitude
0.00002°
Longitude
158.51795°
Altitude
548.206 km
Speed
7.589 km/s
True Right ascension
01h 42m 54s
True Declination
0° 00' 00"
Sunlit
Object was in full shadow at epoch
Visualization orbit readout
Latitude
Unknown
Longitude
Unknown
Altitude
Unknown
Speed
Unknown
Apparent Right ascension
Unknown
Apparent Declination
Unknown
Sunlit
N/A
Visualization observer readout
Local Sidereal Time
22:41:57
Azimuth
Unknown
Elevation
Unknown
Doppler factor
Unknown
Orbital elements
Apogee altitude
548.453 km
Perigee altitude
546.665 km
Semi-major axis
6,925.696 km
Eccentricity
0.00013
Inclination
53.0549°
RAAN
25.7275°
Arg. of periapsis
92.6029°
True anomaly
267.49602°
Mean anomaly
267.5108°
Eccentric anomaly
267.50341°
Mean motion
3.76572 °/min
Orbital period
95.6 mins
BSTAR
-0.00012974
Loading maneuver chart data...
Computing Atmospheric mass density...

Documentation

Showing up to 5 results
|